{"data":{"norad_id":56515,"intl_designator":"2023-065N","name":"STARLINK-5348","alt_names":[],"object_type":"PAYLOAD","status":"ACTIVE","operator":null,"country":"US","launch_date":"2023-05-14","launch_site_code":"AFETR","launch_vehicle":null,"mission":null,"orbit_class":"UNKNOWN","rcs_meters":null,"size_class":null,"mass_kg":null,"dimensions":null,"purposes":["comms"],"wikipedia_slug":null,"has_3d_model":false,"image_url":null,"decayed_at":null,"tle_current":{"epoch":"2026-09-20T11:56:24.037152Z","epoch_age_seconds":115074,"freshness":"FRESH","line1":"1 56515U 23065N   26263.49750043 -.00000057  00000+0  74466-5 0  9993","line2":"2 56515  43.0015 192.2558 0000996 258.4119 101.6620 15.27577223186397","mean_motion":15.27577223,"eccentricity":9.96e-5,"inclination_deg":43.0015,"raan_deg":192.2558,"arg_perigee_deg":258.4119,"mean_anomaly_deg":101.662,"bstar":7.4466e-6,"rev_number":18639,"period_min":94.266920082246,"perigee_km":482.3740364259,"apogee_km":483.74078635265,"semimajor_km":6861.1944113893,"source":"CELESTRAK","updated_at":"2026-09-21T09:00:33.471244Z"}}}